Latest Weather Observations for Legendre Island

IDW60801

Issued at 9:35 pm WST Wednesday 22 October 2014 (issued every 30 minutes, with the page automatically refreshed every 10 minutes)

About weather observations | Map of weather stations | Latest weather observations for WA | Other Formats
Station Details ID: 004095 Name: LEGENDRE ISLAND Lat: -20.36 Lon: 116.84 Height: 29.0 m
Data from the previous 72 hours. | See also: Recent months for locations in Western Australia
Date/Time
WST
Temp
°C
App
Temp
°C
Dew
Point
Rel
Hum
%
Delta-T
°C
Wind Press
QNH
hPa
Press
MSL
hPa
Rain
since 9 am
mm
Dir
 
Spd
km/h
Gust
km/h
Spd
kts
Gust
kts
22/09:30pm 26.0 24.9 21.7 77 2.9 WSW 30 39 16 21 1012.6 1012.5 -
22/09:00pm 26.1 24.2 21.3 75 3.2 WSW 33 39 18 21 1012.6 1012.5 -
22/08:30pm 26.2 24.5 21.4 75 3.2 SW 32 39 17 21 1012.6 1012.5 -
22/08:00pm 26.3 24.5 21.5 75 3.2 SW 33 41 18 22 1012.4 1012.3 -
22/07:30pm 26.4 24.2 21.4 74 3.3 SW 35 44 19 24 1012.2 1012.1 -
22/07:00pm 26.6 24.6 21.1 72 3.6 SW 33 41 18 22 1011.7 1011.6 -
22/06:30pm 26.6 24.0 20.7 70 3.9 WSW 35 48 19 26 1011.4 1011.3 -
22/06:00pm 26.7 24.6 21.0 71 3.8 WSW 33 41 18 22 1011.0 1010.9 -
22/05:30pm 27.6 26.0 20.7 66 4.6 SW 30 37 16 20 1010.8 1010.7 -
22/05:00pm 27.4 24.6 20.2 65 4.7 WSW 35 43 19 23 1010.6 1010.5 -
22/04:30pm 28.3 25.7 20.6 63 5.1 WSW 35 44 19 24 1010.6 1010.5 -
22/04:00pm 29.0 25.4 19.3 55 6.3 WSW 37 46 20 25 1010.7 1010.6 -
22/03:30pm 29.4 26.1 20.0 57 6.2 WSW 37 44 20 24 1010.6 1010.5 -
22/03:00pm 29.0 24.4 19.6 57 6.1 WSW 43 50 23 27 1010.5 1010.4 -
22/02:30pm 30.1 26.3 19.8 54 6.8 WSW 39 46 21 25 1010.6 1010.5 -
22/02:00pm 29.4 25.4 19.4 55 6.5 WSW 39 46 21 25 1011.1 1011.0 -
22/01:30pm 29.9 28.6 19.9 55 6.6 WSW 26 33 14 18 1012.1 1012.0 -
22/01:00pm 29.1 28.1 19.7 57 6.1 WSW 24 30 13 16 1012.7 1012.6 -
22/12:30pm 29.4 28.7 19.4 55 6.5 WSW 22 26 12 14 1013.3 1013.2 -
22/12:00pm 30.1 29.0 19.5 53 6.9 WSW 24 30 13 16 1013.5 1013.4 -
22/11:30am 29.1 27.2 19.4 55 6.3 WSW 28 32 15 17 1013.9 1013.8 -
22/11:00am 29.4 28.4 18.8 53 6.8 WSW 22 26 12 14 1014.2 1014.1 -
22/10:30am 29.2 27.6 18.3 51 7.0 WSW 24 28 13 15 1014.6 1014.5 -
22/10:00am 28.5 26.8 18.9 56 6.2 WSW 26 30 14 16 1014.5 1014.4 -
22/09:30am 28.3 27.1 19.2 57 5.9 WSW 24 30 13 16 1014.9 1014.8 -
22/09:00am 28.9 27.9 18.9 54 6.5 WSW 22 26 12 14 1014.8 1014.7 -
22/08:30am 28.3 28.8 18.4 55 6.3 SSW 13 17 7 9 1015.0 1014.9 -
22/08:00am 27.6 26.6 18.9 59 5.6 SW 22 28 12 15 1014.2 1014.1 -
22/07:30am 26.8 25.3 17.8 57 5.7 SW 22 30 12 16 1013.9 1013.8 -
22/07:00am 25.9 24.1 17.8 61 5.1 SSW 24 32 13 17 1013.5 1013.4 -
22/06:30am 25.0 23.7 18.2 66 4.3 SW 22 26 12 14 1013.6 1013.5 -
22/06:00am 23.9 22.1 17.9 69 3.8 SW 24 26 13 14 1013.4 1013.3 -
22/05:30am 23.6 21.4 17.8 70 3.6 SW 26 30 14 16 1013.1 1013.0 -
22/05:00am 23.8 21.5 17.5 68 3.9 SW 26 30 14 16 1013.1 1013.0 -
22/04:30am 23.8 21.4 17.3 67 4.0 SSW 26 30 14 16 1012.9 1012.8 -
22/04:00am 24.0 21.3 17.5 67 4.0 SSW 28 32 15 17 1012.7 1012.6 -
22/03:30am 24.2 21.8 17.4 65 4.2 SSW 26 32 14 17 1012.8 1012.7 -
22/03:00am 24.3 21.2 16.6 62 4.7 SSW 28 33 15 18 1012.7 1012.6 -
22/02:30am 24.7 20.8 16.4 60 5.1 SSW 32 41 17 22 1012.8 1012.7 -
22/02:00am 24.8 20.7 16.5 60 5.1 SSW 33 41 18 22 1013.0 1012.9 -
22/01:30am 24.9 20.6 15.8 57 5.5 SW 33 41 18 22 1013.3 1013.2 -
22/01:00am 25.0 19.9 15.9 57 5.5 SW 37 43 20 23 1013.4 1013.3 -
22/12:30am 24.9 20.9 16.6 60 5.1 SW 33 43 18 23 1013.6 1013.5 -
22/12:00am 25.0 21.2 16.7 60 5.1 SW 32 39 17 21 1013.9 1013.8 -
 
Date/Time
WST
Temp
°C
App
Temp
°C
Dew
Point
Rel
Hum
%
Delta-T
°C
Wind Press
QNH
hPa
Press
MSL
hPa
Rain
since 9 am
mm
Dir
 
Spd
km/h
Gust
km/h
Spd
kts
Gust
kts
21/11:30pm 25.3 20.6 15.9 56 5.7 SW 35 41 19 22 1014.1 1014.0 -
21/11:00pm 25.4 20.5 15.4 54 6.0 SSW 35 43 19 23 1014.4 1014.3 -
21/10:30pm 25.4 22.2 17.3 61 5.1 SW 30 33 16 18 1014.8 1014.7 -
21/10:00pm 25.3 22.6 17.5 62 4.9 SW 28 35 15 19 1015.1 1015.0 -
21/09:30pm 25.1 23.3 18.8 68 4.0 SSW 26 30 14 16 1015.2 1015.1 -
21/09:00pm 25.1 22.7 18.3 66 4.3 SW 28 33 15 18 1015.3 1015.2 -
21/08:30pm 25.0 23.3 18.9 69 3.9 SW 26 32 14 17 1015.2 1015.1 -
21/08:00pm 25.0 22.9 18.9 69 3.9 SW 28 33 15 18 1015.2 1015.1 -
21/07:30pm 25.0 22.7 18.4 66 4.2 SW 28 35 15 19 1015.0 1014.9 -
21/07:00pm 24.9 23.6 19.9 74 3.2 SW 26 30 14 16 1014.9 1014.8 -
21/06:30pm 25.0 23.4 20.0 74 3.2 WSW 28 33 15 18 1014.6 1014.5 -
21/06:00pm 25.4 23.9 20.2 73 3.4 WSW 28 33 15 18 1014.5 1014.4 -
21/05:30pm 26.0 24.3 19.9 69 4.0 WSW 28 32 15 17 1014.3 1014.2 -
21/05:00pm 26.6 25.2 19.7 66 4.5 WSW 26 30 14 16 1014.0 1013.9 -
21/04:30pm 27.3 25.6 18.9 60 5.4 WSW 26 30 14 16 1013.9 1013.8 -
21/04:00pm 27.7 25.5 17.8 54 6.3 WSW 26 30 14 16 1014.0 1013.9 -
21/03:30pm 28.0 26.0 18.4 56 6.1 WSW 26 32 14 17 1014.0 1013.9 -
21/03:00pm 28.0 26.3 19.0 58 5.8 WSW 26 30 14 16 1014.3 1014.2 -
21/02:30pm 27.8 26.2 19.3 60 5.5 WSW 26 30 14 16 1014.3 1014.2 -
21/02:00pm 28.2 26.5 18.9 57 6.0 WSW 26 30 14 16 1014.6 1014.5 -
21/01:30pm 28.1 26.5 19.3 58 5.7 WSW 26 30 14 16 1014.9 1014.8 -
21/01:00pm 28.7 27.3 18.8 55 6.4 W 24 28 13 15 1015.5 1015.3 -
21/12:30pm 27.8 26.8 18.8 58 5.8 W 22 28 12 15 1015.8 1015.6 -
21/12:00pm 27.8 26.8 17.9 54 6.3 WSW 20 26 11 14 1016.2 1016.0 -
21/11:30am 27.7 26.5 17.5 53 6.4 WSW 20 26 11 14 1016.4 1016.2 -
21/11:00am 27.4 25.9 17.6 55 6.2 WSW 22 28 12 15 1016.7 1016.5 -
21/10:30am 27.5 26.1 17.9 55 6.1 WSW 22 26 12 14 1016.9 1016.7 -
21/10:00am 26.8 26.0 18.4 60 5.3 WSW 20 26 11 14 1017.1 1016.9 -
21/09:30am 26.8 26.1 17.3 56 6.0 WSW 17 22 9 12 1017.3 1017.1 -
21/09:00am 25.7 24.5 17.6 61 5.1 WSW 20 24 11 13 1017.2 1017.0 -
21/08:30am 25.4 23.5 17.6 62 4.9 SW 24 28 13 15 1016.9 1016.7 -
21/08:00am 24.9 22.6 17.6 64 4.6 SW 26 30 14 16 1016.8 1016.6 -
21/07:30am 24.2 21.4 17.2 65 4.3 SW 28 32 15 17 1016.7 1016.5 -
21/07:00am 23.6 21.1 17.1 67 4.0 SW 26 30 14 16 1016.4 1016.2 -
21/06:30am 22.9 20.5 17.4 71 3.4 SW 26 30 14 16 1016.2 1016.0 -
21/06:00am 22.3 19.2 17.4 74 3.0 SW 30 33 16 18 1015.7 1015.5 -
21/05:30am 22.2 19.2 18.6 80 2.3 SSW 32 37 17 20 1014.9 1014.8 -
21/05:00am 22.5 20.1 19.9 85 1.7 SW 32 37 17 20 1014.9 1014.8 -
21/04:30am 23.0 20.7 20.1 84 1.9 SW 32 37 17 20 1014.8 1014.7 -
21/04:00am 22.8 20.7 19.8 83 1.9 SW 30 35 16 19 1014.6 1014.5 -
21/03:30am 23.0 21.0 20.0 83 1.9 SW 30 35 16 19 1014.5 1014.4 -
21/03:00am 23.0 21.1 20.1 84 1.9 SW 30 37 16 20 1014.5 1014.4 -
21/02:30am 23.2 20.4 20.3 84 1.9 SW 35 43 19 23 1014.4 1014.3 -
21/02:00am 22.9 20.7 20.4 86 1.6 SW 32 37 17 20 1014.7 1014.6 -
21/01:30am 23.1 20.7 20.4 85 1.8 SW 33 39 18 21 1014.8 1014.7 -
21/01:00am 23.1 20.5 19.9 82 2.1 SW 33 39 18 21 1015.1 1015.0 -
21/12:30am 22.9 20.6 20.1 84 1.8 WSW 32 39 17 21 1015.5 1015.3 -
21/12:00am 23.0 20.5 20.1 84 1.9 WSW 33 41 18 22 1015.3 1015.2 -
 
Date/Time
WST
Temp
°C
App
Temp
°C
Dew
Point
Rel
Hum
%
Delta-T
°C
Wind Press
QNH
hPa
Press
MSL
hPa
Rain
since 9 am
mm
Dir
 
Spd
km/h
Gust
km/h
Spd
kts
Gust
kts
20/11:30pm 23.0 19.8 18.7 77 2.7 WSW 33 37 18 20 1015.7 1015.5 -
20/11:00pm 23.2 20.3 17.9 72 3.3 WSW 30 35 16 19 1016.1 1015.9 -
20/10:30pm 23.1 21.3 18.8 77 2.7 WSW 26 33 14 18 1016.3 1016.1 -
20/10:00pm 23.2 21.5 18.9 77 2.7 WSW 26 32 14 17 1016.4 1016.2 -
20/09:30pm 23.2 21.3 18.5 75 3.0 W 26 30 14 16 1016.4 1016.2 -
20/09:00pm 23.4 21.5 18.5 74 3.1 WSW 26 30 14 16 1016.2 1016.0 -
20/08:30pm 23.3 21.2 18.0 72 3.3 W 26 32 14 17 1015.9 1015.7 -
20/08:00pm 23.3 20.9 18.2 73 3.2 W 28 32 15 17 1015.7 1015.5 -
20/07:30pm 23.4 20.4 17.8 71 3.5 W 30 33 16 18 1015.3 1015.2 -
20/07:00pm 23.5 20.4 15.5 60 4.8 W 26 30 14 16 1014.8 1014.7 -
20/06:30pm 23.8 20.6 15.3 59 5.1 W 26 33 14 18 1014.4 1014.3 -
20/06:00pm 24.4 21.3 14.5 54 5.9 W 24 30 13 16 1014.3 1014.2 -
20/05:30pm 25.3 22.7 15.9 56 5.7 W 24 30 13 16 1013.9 1013.8 -
20/05:00pm 26.1 23.5 15.8 53 6.3 W 24 28 13 15 1013.7 1013.6 -
20/04:30pm 26.2 23.5 15.6 52 6.5 W 24 28 13 15 1013.6 1013.5 -
20/04:00pm 27.2 24.2 14.9 47 7.4 W 24 28 13 15 1013.6 1013.5 -
20/03:30pm 27.4 24.7 15.7 48 7.2 W 24 28 13 15 1013.7 1013.6 -
20/03:00pm 27.7 25.1 16.0 49 7.2 W 24 28 13 15 1013.8 1013.7 -
20/02:30pm 27.7 25.1 15.0 45 7.7 W 22 28 12 15 1013.8 1013.7 -
20/02:00pm 27.5 24.7 14.2 44 8.0 W 22 26 12 14 1014.1 1014.0 -
20/01:30pm 27.8 25.1 15.5 47 7.5 W 24 28 13 15 1014.4 1014.3 -
20/01:00pm 27.9 25.7 15.9 48 7.4 W 22 28 12 15 1014.7 1014.6 -
20/12:30pm 27.8 26.0 16.1 49 7.2 W 20 26 11 14 1015.0 1014.9 -
20/12:00pm 28.2 26.4 15.5 46 7.8 W 19 26 10 14 1015.3 1015.2 -
20/11:30am 27.9 25.9 14.9 45 7.9 WSW 19 24 10 13 1015.7 1015.5 -
20/11:00am 28.1 27.0 15.4 46 7.8 WSW 15 19 8 10 1016.1 1015.9 -
20/10:30am 27.8 26.6 16.1 49 7.2 WSW 17 22 9 12 1016.3 1016.1 -
20/10:00am 26.9 26.2 16.5 53 6.4 SW 15 20 8 11 1016.5 1016.3 -
20/09:30am 26.2 24.1 14.6 48 7.0 SSW 19 22 10 12 1016.6 1016.4 -
20/09:00am 26.3 23.7 15.0 49 6.8 SW 22 26 12 14 1016.5 1016.3 -
20/08:30am 25.3 22.2 14.4 50 6.5 SSW 24 30 13 16 1016.2 1016.0 -
20/08:00am 24.4 21.4 14.8 55 5.7 SW 24 30 13 16 1016.3 1016.1 -
20/07:30am 24.1 21.3 15.3 58 5.3 SW 24 28 13 15 1016.0 1015.8 -
20/07:00am 23.0 19.9 14.6 59 5.0 SW 24 30 13 16 1015.8 1015.6 -
20/06:30am 22.3 18.3 14.2 60 4.7 SSW 28 32 15 17 1015.5 1015.3 -
20/06:00am 21.5 17.8 13.9 62 4.4 SW 26 32 14 17 1015.2 1015.1 -
20/05:30am 21.1 16.9 13.5 62 4.4 SSW 28 33 15 18 1014.8 1014.7 -
20/05:00am 21.4 16.5 13.6 61 4.5 SSW 32 35 17 19 1014.4 1014.3 -
20/04:30am 21.6 16.5 13.8 61 4.5 SSW 33 41 18 22 1014.2 1014.1 -
20/04:00am 21.8 16.9 14.4 63 4.3 SSW 33 43 18 23 1014.1 1014.0 -
20/03:30am 22.0 17.0 14.1 61 4.6 SSW 33 41 18 22 1013.8 1013.7 -
20/03:00am 22.3 16.4 13.6 58 5.0 SW 37 43 20 23 1013.5 1013.4 -
20/02:30am 22.6 16.9 13.1 55 5.5 SW 35 43 19 23 1013.5 1013.4 -
20/02:00am 22.9 17.4 14.7 60 4.9 SW 37 43 20 23 1013.7 1013.6 -
20/01:30am 23.1 18.4 16.9 68 3.8 SW 37 46 20 25 1013.7 1013.6 -
20/01:00am 23.1 18.8 16.9 68 3.8 SW 35 44 19 24 1013.9 1013.8 -
20/12:30am 23.3 18.4 15.4 61 4.7 SW 35 44 19 24 1014.1 1014.0 -
20/12:00am 23.3 17.8 14.6 58 5.1 WSW 37 41 20 22 1014.5 1014.4 -
 
Date/Time
WST
Temp
°C
App
Temp
°C
Dew
Point
Rel
Hum
%
Delta-T
°C
Wind Press
QNH
hPa
Press
MSL
hPa
Rain
since 9 am
mm
Dir
 
Spd
km/h
Gust
km/h
Spd
kts
Gust
kts
19/11:30pm 23.2 18.4 13.9 56 5.4 WSW 32 39 17 21 1014.6 1014.5 -
19/11:00pm 23.2 18.4 14.5 58 5.1 WSW 33 39 18 21 1014.9 1014.8 -
19/10:30pm 23.4 17.9 14.7 58 5.2 WSW 37 43 20 23 1014.9 1014.8 -
19/10:00pm 23.5 19.0 15.5 60 4.8 WSW 33 41 18 22 1015.1 1015.0 -

Other Formats:

Comma delimited format used in spreadsheet applications
http://www.bom.gov.au/fwo/IDW60801/IDW60801.94307.axf

JavaScript Object Notation format (JSON) in row-major order
http://www.bom.gov.au/fwo/IDW60801/IDW60801.94307.json